Volver al catálogo

FENGYUN 1C DEB

ActivoSSO
NORAD 29907·DEBRIS·🇨🇳 China

Lanzado May 10, 1999 desde Taiyuan Satellite Launch Center

Loading…

Próximos Pases (próximas 24 horas)

TLE

ActualizadoSource: Space-Track

Época: Sep 14, 2026, 03:16 UTC

1 29907U 99025HD  26257.13614708  .00001581  00000-0  84647-3 0  9991
2 29907  99.0949 333.0610 0083345 195.1417 193.6609 14.12863885  4875

Sigue FENGYUN 1C DEB en tiempo real con AllMySat

Download on the App Store